Location: ????
(30.1475°N, 31.1342°E)
Time: 03:03:37
(UTC+00:00)

Atlas Centaur 2 - Pass Details

Date: 27 September 2022
Orbit: 459 x 1300 km, 30.4° (Epoch: 01 December)

Event Time Altitude Azimuth Distance (km) Brightness Sun altitude
Exits shadow 01:58:56 44° 262° (W) 1,593 3.1 -23.9°
Maximum altitude 02:01:48 89° 178° (S) 1,145 2.7 -23.3°
Drops below altitude 10° 02:08:42 10° 85° (E) 2,744 6.0 -21.8°
Sets 02:11:07 0° 85° (E) 3,572 7.0 -21.3°
